Crosby, ND

5:34 AM CST on December 07, 2019 (GMT -0600)
Crosby

Weather History for KD50 - August, 2019

Change the Weather History Date:

Thursday, August 22, 2019

  Actual Average (KISN) Record (KISN)
Temperature  
Mean Temperature 65 °F -  
Max Temperature 84 °F 81 °F 103 °F (1969)
Min Temperature 46 °F 53 °F 32 °F (1911)
Growing Degree Days 15 (Base 50)    
Moisture  
Dew Point 54 °F    
Average Humidity 70    
Maximum Humidity 100    
Minimum Humidity 37    
Precipitation  
Precipitation 0.00 in - - ()
Sea Level Pressure  
Sea Level Pressure 29.94 in    
Wind  
Wind Speed 11 mph (ESE)    
Max Wind Speed 25 mph    
Max Gust Speed 36 mph    
Visibility 10 miles    
Events      
Averages and records for this station are not official NWS values.
T = Trace of Precipitation, MM = Missing Value Source: NWS Daily Summary

Daily Weather History Graph

Daily Weather History Graph

Search for Another Location

Airport or City:

Astronomy

Aug. 22, 2019 Rise Set
Actual Time 6:55 AM CDT 8:55 PM CDT
Civil Twilight 6:21 AM CDT 9:29 PM CDT
Nautical Twilight 5:39 AM CDT 10:11 PM CDT
Astronomical Twilight 4:51 AM CDT 10:58 PM CDT
Moon No Moon Rise 2:07 PM CDT (8/22)
Length of Visible Light 15h 08m
Length of Day
14h 00m
Waning Gibbous, 59% of the Moon is Illuminated
Aug 22
Waning Gibbous
Aug 23
Last Quarter
Aug 30
New
Sep 5
First Quarter
Sep 13
Full

Hourly Weather History & Observations

Time (CDT) Temp. Windchill Dew Point Humidity Pressure Visibility Wind Dir Wind Speed Gust Speed Precip Events Conditions
12:15 AM 51.8 °F - 48.2 °F 88% 30.06 in 10.0 mi East 5.8 mph - N/A   Clear
12:35 AM 51.8 °F - 48.2 °F 88% 30.06 in 10.0 mi East 4.6 mph - N/A   Clear
12:55 AM 50.0 °F - 48.2 °F 94% 30.05 in 10.0 mi East 5.8 mph - N/A   Clear
1:15 AM 50.0 °F - 48.2 °F 94% 30.05 in 10.0 mi East 4.6 mph - N/A   Partly Cloudy
1:35 AM 50.0 °F - 48.2 °F 94% 30.05 in 10.0 mi East 4.6 mph - N/A   Partly Cloudy
1:55 AM 48.2 °F - 48.2 °F 100% 30.04 in 10.0 mi East 3.5 mph - N/A   Scattered Clouds
2:15 AM 48.2 °F - 48.2 °F 100% 30.04 in 10.0 mi East 4.6 mph - N/A   Scattered Clouds
2:35 AM 48.2 °F - 48.2 °F 100% 30.03 in 10.0 mi East 6.9 mph - N/A   Scattered Clouds
2:55 AM 50.0 °F - 50.0 °F 100% 30.02 in 10.0 mi East 6.9 mph - N/A   Scattered Clouds
3:15 AM 50.0 °F - 48.2 °F 94% 30.01 in 10.0 mi East 8.1 mph - N/A   Scattered Clouds
3:35 AM 50.0 °F - 48.2 °F 94% 30.01 in 10.0 mi East 5.8 mph - N/A   Partly Cloudy
3:55 AM 48.2 °F - 48.2 °F 100% 30.01 in 10.0 mi East 6.9 mph - N/A   Partly Cloudy
4:15 AM 48.2 °F - 48.2 °F 100% 30.00 in 10.0 mi East 9.2 mph - N/A   Partly Cloudy
4:35 AM 48.2 °F - 48.2 °F 100% 30.00 in 10.0 mi East 9.2 mph - N/A   Clear
4:55 AM 48.2 °F - 48.2 °F 100% 29.99 in 10.0 mi East 9.2 mph - N/A   Clear
5:15 AM 48.2 °F - 48.2 °F 100% 29.99 in 10.0 mi East 9.2 mph - N/A   Clear
5:35 AM 48.2 °F - 48.2 °F 100% 29.99 in 10.0 mi East 5.8 mph - N/A   Clear
5:55 AM 46.4 °F 43.5 °F 46.4 °F 100% 29.99 in 10.0 mi East 5.8 mph - N/A   Clear
6:15 AM 46.4 °F 41.9 °F 46.4 °F 100% 29.98 in 10.0 mi East 9.2 mph - N/A   Clear
6:35 AM 46.4 °F 42.9 °F 46.4 °F 100% 29.98 in 10.0 mi East 6.9 mph - N/A   Clear
6:55 AM 48.2 °F - 48.2 °F 100% 29.98 in 10.0 mi East 8.1 mph - N/A   Clear
7:15 AM 48.2 °F - 48.2 °F 100% 29.99 in 10.0 mi East 6.9 mph - N/A   Clear
7:35 AM 48.2 °F - 48.2 °F 100% 30.00 in 10.0 mi East 6.9 mph - N/A   Clear
7:55 AM 48.2 °F - 48.2 °F 100% 29.99 in 10.0 mi East 9.2 mph - N/A   Clear
8:15 AM 50.0 °F - 50.0 °F 100% 30.00 in 10.0 mi East 8.1 mph - N/A   Clear
8:35 AM 51.8 °F - 51.8 °F 100% 30.00 in 10.0 mi East 8.1 mph - N/A   Clear
8:55 AM 53.6 °F - 51.8 °F 94% 29.99 in 9.0 mi East 5.8 mph - N/A   Clear
9:15 AM 59.0 °F - 51.8 °F 77% 29.98 in 10.0 mi East 5.8 mph - N/A   Clear
9:35 AM 62.6 °F - 51.8 °F 68% 29.97 in 10.0 mi East 10.4 mph - N/A   Clear
9:55 AM 64.4 °F - 51.8 °F 64% 29.95 in 9.0 mi ESE 12.7 mph - N/A   Clear
10:15 AM 68.0 °F - 53.6 °F 60% 29.95 in 10.0 mi ESE 10.4 mph 16.1 mph N/A   Clear
10:35 AM 71.6 °F - 53.6 °F 53% 29.95 in 9.0 mi SE 18.4 mph - N/A   Clear
10:55 AM 71.6 °F - 53.6 °F 53% 29.95 in 9.0 mi SE 16.1 mph - N/A   Clear
11:15 AM 73.4 °F - 53.6 °F 50% 29.94 in 10.0 mi SE 19.6 mph 26.5 mph N/A   Clear
11:35 AM 75.2 °F - 53.6 °F 47% 29.93 in 9.0 mi SE 18.4 mph 25.3 mph N/A   Clear
11:55 AM 77.0 °F - 53.6 °F 44% 29.92 in 9.0 mi ESE 21.9 mph 32.2 mph N/A   Clear
12:15 PM 77.0 °F - 53.6 °F 44% 29.91 in 9.0 mi SE 25.3 mph 32.2 mph N/A   Clear
12:35 PM 77.0 °F - 53.6 °F 44% 29.90 in 9.0 mi SE 25.3 mph 32.2 mph N/A   Clear
12:55 PM 78.8 °F - 53.6 °F 42% 29.90 in 8.0 mi SE 21.9 mph 31.1 mph N/A   Clear
1:15 PM 78.8 °F - 53.6 °F 42% 29.89 in 9.0 mi ESE 25.3 mph - N/A   Clear
1:35 PM 80.6 °F - 53.6 °F 39% 29.89 in 9.0 mi SE 23.0 mph 31.1 mph N/A   Clear
1:55 PM 80.6 °F - 55.4 °F 42% 29.89 in 9.0 mi SE 23.0 mph 32.2 mph N/A   Clear
2:15 PM 80.6 °F - 55.4 °F 42% 29.89 in 9.0 mi SE 21.9 mph 34.5 mph N/A   Clear
2:35 PM 82.4 °F - 55.4 °F 39% 29.88 in 9.0 mi SE 24.2 mph 33.4 mph N/A   Clear
2:55 PM 82.4 °F - 55.4 °F 39% 29.88 in 9.0 mi SE 25.3 mph 33.4 mph N/A   Clear
3:15 PM 82.4 °F - 55.4 °F 39% 29.88 in 8.0 mi SE 21.9 mph 32.2 mph N/A   Clear
3:35 PM 82.4 °F - 55.4 °F 39% 29.88 in 9.0 mi SE 20.7 mph 32.2 mph N/A   Clear
3:55 PM 82.4 °F - 55.4 °F 39% 29.88 in 9.0 mi SE 23.0 mph 28.8 mph N/A   Clear
4:15 PM 84.2 °F - 55.4 °F 37% 29.87 in 9.0 mi SE 25.3 mph 35.7 mph N/A   Clear
4:35 PM 84.2 °F - 57.2 °F 40% 29.86 in 9.0 mi SE 18.4 mph 31.1 mph N/A   Clear
4:55 PM 84.2 °F - 57.2 °F 40% 29.86 in 8.0 mi SE 24.2 mph 31.1 mph N/A   Clear
5:15 PM 82.4 °F - 57.2 °F 42% 29.86 in 10.0 mi SE 19.6 mph 33.4 mph N/A   Clear
5:35 PM 82.4 °F - 57.2 °F 42% 29.86 in 9.0 mi SE 17.3 mph 27.6 mph N/A   Clear
5:55 PM 80.6 °F - 57.2 °F 45% 29.86 in 9.0 mi SE 17.3 mph 24.2 mph N/A   Clear
6:15 PM 80.6 °F - 57.2 °F 45% 29.86 in 9.0 mi SE 21.9 mph 27.6 mph N/A   Clear
6:35 PM 80.6 °F - 57.2 °F 45% 29.86 in 9.0 mi SE 21.9 mph 27.6 mph N/A   Clear
6:55 PM 80.6 °F - 59.0 °F 48% 29.86 in 9.0 mi SE 17.3 mph 26.5 mph N/A   Clear
7:15 PM 80.6 °F - 57.2 °F 45% 29.86 in 9.0 mi SE 15.0 mph 24.2 mph N/A   Clear
7:35 PM 78.8 °F - 59.0 °F 51% 29.87 in 9.0 mi SE 18.4 mph 26.5 mph N/A   Clear
7:55 PM 77.0 °F - 59.0 °F 54% 29.87 in 10.0 mi SE 16.1 mph 24.2 mph N/A   Clear
8:15 PM 77.0 °F - 59.0 °F 54% 29.87 in 9.0 mi SE 13.8 mph - N/A   Clear
8:35 PM 75.2 °F - 59.0 °F 57% 29.87 in 9.0 mi SE 12.7 mph 19.6 mph N/A   Clear
8:55 PM 73.4 °F - 60.8 °F 65% 29.87 in 9.0 mi SE 10.4 mph - N/A   Clear
9:15 PM 73.4 °F - 60.8 °F 65% 29.87 in 9.0 mi SE 12.7 mph - N/A   Clear
9:35 PM 71.6 °F - 60.8 °F 69% 29.88 in 10.0 mi ESE 9.2 mph - N/A   Clear
9:55 PM 68.0 °F - 60.8 °F 78% 29.87 in 10.0 mi ESE 9.2 mph - N/A   Clear
10:15 PM 66.2 °F - 60.8 °F 83% 29.88 in 10.0 mi ESE 9.2 mph - N/A   Partly Cloudy
10:35 PM 66.2 °F - 60.8 °F 83% 29.88 in 10.0 mi SE 10.4 mph - N/A   Clear
10:55 PM 68.0 °F - 62.6 °F 83% 29.88 in 10.0 mi SE 13.8 mph 19.6 mph N/A   Partly Cloudy
11:15 PM 68.0 °F - 62.6 °F 83% 29.89 in 10.0 mi SE 11.5 mph 19.6 mph N/A   Partly Cloudy
11:35 PM 68.0 °F - 62.6 °F 83% 29.91 in 10.0 mi SE 15.0 mph 23.0 mph N/A   Clear
11:55 PM 68.0 °F - 62.6 °F 83% 29.91 in 10.0 mi SE 12.7 mph - N/A   Clear